owner,sensor,date,latitude,longitude,air_temperature,qcFlag 
LOOP,urn:ioos:station:wmo:lopl1:1,2018-04-01T00:05:00Z,28.8850,-90.0250,19.2,1111122 
LOOP,urn:ioos:station:wmo:lopl1:1,2018-04-01T01:10:00Z,28.8850,-90.0250,19.0,1111122 
LOOP,urn:ioos:station:wmo:lopl1:1,2018-04-01T02:10:00Z,28.8850,-90.0250,19.1,1111122 
LOOP,urn:ioos:station:wmo:lopl1:1,2018-04-01T03:10:00Z,28.8850,-90.0250,18.7,1111122 
LOOP,urn:ioos:station:wmo:lopl1:1,2018-04-01T04:10:00Z,28.8850,-90.0250,18.6,1111122 
LOOP,urn:ioos:station:wmo:lopl1:1,2018-04-01T06:00:00Z,28.8850,-90.0250,18.5,1111122 
LOOP,urn:ioos:station:wmo:lopl1:1,2018-04-01T07:00:00Z,28.8850,-90.0250,18.3,1111122 
LOOP,urn:ioos:station:wmo:lopl1:1,2018-04-01T08:00:00Z,28.8850,-90.0250,18.4,1111122 
LOOP,urn:ioos:station:wmo:lopl1:1,2018-04-01T09:00:00Z,28.8850,-90.0250,19.1,1111122 
LOOP,urn:ioos:station:wmo:lopl1:1,2018-04-01T10:00:00Z,28.8850,-90.0250,19.1,1111122 
LOOP,urn:ioos:station:wmo:lopl1:1,2018-04-01T11:00:00Z,28.8850,-90.0250,19.3,1111122 
LOOP,urn:ioos:station:wmo:lopl1:1,2018-04-01T12:00:00Z,28.8850,-90.0250,19.5,1111122 
LOOP,urn:ioos:station:wmo:lopl1:1,2018-04-01T13:00:00Z,28.8850,-90.0250,19.9,1111122 
LOOP,urn:ioos:station:wmo:lopl1:1,2018-04-01T14:00:00Z,28.8850,-90.0250,20.1,1111122 
LOOP,urn:ioos:station:wmo:lopl1:1,2018-04-01T15:00:00Z,28.8850,-90.0250,20.3,1111122 
LOOP,urn:ioos:station:wmo:lopl1:1,2018-04-01T16:00:00Z,28.8850,-90.0250,19.9,1111122 
LOOP,urn:ioos:station:wmo:lopl1:1,2018-04-01T17:00:00Z,28.8850,-90.0250,20.1,1111122 
LOOP,urn:ioos:station:wmo:lopl1:1,2018-04-01T18:00:00Z,28.8850,-90.0250,19.9,1111122 
LOOP,urn:ioos:station:wmo:lopl1:1,2018-04-01T19:00:00Z,28.8850,-90.0250,20.2,1111122 
LOOP,urn:ioos:station:wmo:lopl1:1,2018-04-01T20:00:00Z,28.8850,-90.0250,20.4,1111122 
LOOP,urn:ioos:station:wmo:lopl1:1,2018-04-01T21:00:00Z,28.8850,-90.0250,20.6,1111122 
LOOP,urn:ioos:station:wmo:lopl1:1,2018-04-01T22:00:00Z,28.8850,-90.0250,20.7,1111122 
LOOP,urn:ioos:station:wmo:lopl1:1,2018-04-01T23:00:00Z,28.8850,-90.0250,20.8,1111122 
LOOP,urn:ioos:station:wmo:lopl1:1,2018-04-02T00:00:00Z,28.8850,-90.0250,20.8,1111122 
LOOP,urn:ioos:station:wmo:lopl1:1,2018-04-02T01:00:00Z,28.8850,-90.0250,20.6,1111122 
LOOP,urn:ioos:station:wmo:lopl1:1,2018-04-02T02:00:00Z,28.8850,-90.0250,20.4,1111122 
LOOP,urn:ioos:station:wmo:lopl1:1,2018-04-02T03:00:00Z,28.8850,-90.0250,20.0,1111122 
LOOP,urn:ioos:station:wmo:lopl1:1,2018-04-02T04:00:00Z,28.8850,-90.0250,19.9,1111122 
LOOP,urn:ioos:station:wmo:lopl1:1,2018-04-02T05:00:00Z,28.8850,-90.0250,20.0,1111122 
LOOP,urn:ioos:station:wmo:lopl1:1,2018-04-02T06:00:00Z,28.8850,-90.0250,20.1,1111122 
LOOP,urn:ioos:station:wmo:lopl1:1,2018-04-02T07:00:00Z,28.8850,-90.0250,20.9,1111122 
LOOP,urn:ioos:station:wmo:lopl1:1,2018-04-02T08:00:00Z,28.8850,-90.0250,21.3,1111122 
LOOP,urn:ioos:station:wmo:lopl1:1,2018-04-02T09:00:00Z,28.8850,-90.0250,21.3,1111122 
LOOP,urn:ioos:station:wmo:lopl1:1,2018-04-02T10:00:00Z,28.8850,-90.0250,21.3,1111122 
LOOP,urn:ioos:station:wmo:lopl1:1,2018-04-02T11:15:00Z,28.8850,-90.0250,21.4,1111122 
LOOP,urn:ioos:station:wmo:lopl1:1,2018-04-02T12:15:00Z,28.8850,-90.0250,21.1,1111122 
LOOP,urn:ioos:station:wmo:lopl1:1,2018-04-02T13:15:00Z,28.8850,-90.0250,21.0,1111122 
LOOP,urn:ioos:station:wmo:lopl1:1,2018-04-02T14:15:00Z,28.8850,-90.0250,21.4,1111122 
LOOP,urn:ioos:station:wmo:lopl1:1,2018-04-02T15:15:00Z,28.8850,-90.0250,21.3,1111122 
LOOP,urn:ioos:station:wmo:lopl1:1,2018-04-02T16:15:00Z,28.8850,-90.0250,21.5,1111122 
LOOP,urn:ioos:station:wmo:lopl1:1,2018-04-02T17:15:00Z,28.8850,-90.0250,21.9,1111122 
LOOP,urn:ioos:station:wmo:lopl1:1,2018-04-02T18:15:00Z,28.8850,-90.0250,22.3,1111122 
LOOP,urn:ioos:station:wmo:lopl1:1,2018-04-02T19:55:00Z,28.8850,-90.0250,22.7,1111122 
LOOP,urn:ioos:station:wmo:lopl1:1,2018-04-02T20:55:00Z,28.8850,-90.0250,22.8,1111122 
LOOP,urn:ioos:station:wmo:lopl1:1,2018-04-02T21:55:00Z,28.8850,-90.0250,23.0,1111122 
LOOP,urn:ioos:station:wmo:lopl1:1,2018-04-02T22:55:00Z,28.8850,-90.0250,23.1,1111122 
LOOP,urn:ioos:station:wmo:lopl1:1,2018-04-02T23:55:00Z,28.8850,-90.0250,23.0,1111122 
LOOP,urn:ioos:station:wmo:lopl1:1,2018-04-03T00:55:00Z,28.8850,-90.0250,22.6,1111122 
LOOP,urn:ioos:station:wmo:lopl1:1,2018-04-03T01:55:00Z,28.8850,-90.0250,22.7,1111122 
LOOP,urn:ioos:station:wmo:lopl1:1,2018-04-03T02:55:00Z,28.8850,-90.0250,22.4,1111122 
LOOP,urn:ioos:station:wmo:lopl1:1,2018-04-03T03:55:00Z,28.8850,-90.0250,22.1,1111122 
LOOP,urn:ioos:station:wmo:lopl1:1,2018-04-03T04:55:00Z,28.8850,-90.0250,22.0,1111122 
LOOP,urn:ioos:station:wmo:lopl1:1,2018-04-03T05:55:00Z,28.8850,-90.0250,22.0,1111122 
LOOP,urn:ioos:station:wmo:lopl1:1,2018-04-03T06:55:00Z,28.8850,-90.0250,21.8,1111122 
LOOP,urn:ioos:station:wmo:lopl1:1,2018-04-03T07:55:00Z,28.8850,-90.0250,21.8,1111122 
LOOP,urn:ioos:station:wmo:lopl1:1,2018-04-03T08:55:00Z,28.8850,-90.0250,22.0,1111122 
LOOP,urn:ioos:station:wmo:lopl1:1,2018-04-03T09:55:00Z,28.8850,-90.0250,22.0,1111122 
LOOP,urn:ioos:station:wmo:lopl1:1,2018-04-03T10:55:00Z,28.8850,-90.0250,22.4,1111122 
LOOP,urn:ioos:station:wmo:lopl1:1,2018-04-03T11:55:00Z,28.8850,-90.0250,22.2,1111122 
LOOP,urn:ioos:station:wmo:lopl1:1,2018-04-03T12:55:00Z,28.8850,-90.0250,22.5,1111122 
LOOP,urn:ioos:station:wmo:lopl1:1,2018-04-03T13:55:00Z,28.8850,-90.0250,22.6,1111122 
LOOP,urn:ioos:station:wmo:lopl1:1,2018-04-03T14:55:00Z,28.8850,-90.0250,22.5,1111122 
LOOP,urn:ioos:station:wmo:lopl1:1,2018-04-03T15:55:00Z,28.8850,-90.0250,23.0,1111122 
LOOP,urn:ioos:station:wmo:lopl1:1,2018-04-03T16:55:00Z,28.8850,-90.0250,23.6,1111122 
LOOP,urn:ioos:station:wmo:lopl1:1,2018-04-03T17:55:00Z,28.8850,-90.0250,23.7,1111122 
LOOP,urn:ioos:station:wmo:lopl1:1,2018-04-03T18:55:00Z,28.8850,-90.0250,23.9,1111122 
LOOP,urn:ioos:station:wmo:lopl1:1,2018-04-03T19:55:00Z,28.8850,-90.0250,23.9,1111122 
LOOP,urn:ioos:station:wmo:lopl1:1,2018-04-03T20:55:00Z,28.8850,-90.0250,23.8,1111122 
LOOP,urn:ioos:station:wmo:lopl1:1,2018-04-03T22:10:00Z,28.8850,-90.0250,23.7,1111122 
LOOP,urn:ioos:station:wmo:lopl1:1,2018-04-03T23:10:00Z,28.8850,-90.0250,23.6,1111122 
LOOP,urn:ioos:station:wmo:lopl1:1,2018-04-04T00:10:00Z,28.8850,-90.0250,23.3,1111122 
LOOP,urn:ioos:station:wmo:lopl1:1,2018-04-04T01:10:00Z,28.8850,-90.0250,23.2,1111122 
LOOP,urn:ioos:station:wmo:lopl1:1,2018-04-04T02:10:00Z,28.8850,-90.0250,23.2,1111122 
LOOP,urn:ioos:station:wmo:lopl1:1,2018-04-04T03:10:00Z,28.8850,-90.0250,23.3,1111122 
LOOP,urn:ioos:station:wmo:lopl1:1,2018-04-04T04:10:00Z,28.8850,-90.0250,23.2,1111122 
LOOP,urn:ioos:station:wmo:lopl1:1,2018-04-04T05:10:00Z,28.8850,-90.0250,23.2,1111122 
LOOP,urn:ioos:station:wmo:lopl1:1,2018-04-04T06:10:00Z,28.8850,-90.0250,23.2,1111122 
LOOP,urn:ioos:station:wmo:lopl1:1,2018-04-04T07:10:00Z,28.8850,-90.0250,23.2,1111122 
LOOP,urn:ioos:station:wmo:lopl1:1,2018-04-04T08:10:00Z,28.8850,-90.0250,23.0,1111122 
LOOP,urn:ioos:station:wmo:lopl1:1,2018-04-04T09:10:00Z,28.8850,-90.0250,22.9,1111122 
LOOP,urn:ioos:station:wmo:lopl1:1,2018-04-04T10:10:00Z,28.8850,-90.0250,22.9,1111122 
LOOP,urn:ioos:station:wmo:lopl1:1,2018-04-04T11:10:00Z,28.8850,-90.0250,18.2,1111122 
LOOP,urn:ioos:station:wmo:lopl1:1,2018-04-04T12:10:00Z,28.8850,-90.0250,19.7,1111122 
LOOP,urn:ioos:station:wmo:lopl1:1,2018-04-04T13:10:00Z,28.8850,-90.0250,19.2,1111122 
LOOP,urn:ioos:station:wmo:lopl1:1,2018-04-04T14:10:00Z,28.8850,-90.0250,19.0,1111122 
LOOP,urn:ioos:station:wmo:lopl1:1,2018-04-04T15:20:00Z,28.8850,-90.0250,19.5,1111122 
LOOP,urn:ioos:station:wmo:lopl1:1,2018-04-04T16:20:00Z,28.8850,-90.0250,17.7,1111122 
LOOP,urn:ioos:station:wmo:lopl1:1,2018-04-04T17:20:00Z,28.8850,-90.0250,17.1,1111122 
LOOP,urn:ioos:station:wmo:lopl1:1,2018-04-04T18:20:00Z,28.8850,-90.0250,17.3,1111122 
LOOP,urn:ioos:station:wmo:lopl1:1,2018-04-04T19:20:00Z,28.8850,-90.0250,17.5,1111122 
LOOP,urn:ioos:station:wmo:lopl1:1,2018-04-04T20:20:00Z,28.8850,-90.0250,18.3,1111122 
LOOP,urn:ioos:station:wmo:lopl1:1,2018-04-04T21:20:00Z,28.8850,-90.0250,18.4,1111122 
LOOP,urn:ioos:station:wmo:lopl1:1,2018-04-04T22:20:00Z,28.8850,-90.0250,18.6,1111122 
LOOP,urn:ioos:station:wmo:lopl1:1,2018-04-04T23:20:00Z,28.8850,-90.0250,18.9,1111122 
LOOP,urn:ioos:station:wmo:lopl1:1,2018-04-05T00:20:00Z,28.8850,-90.0250,19.4,1111122 
LOOP,urn:ioos:station:wmo:lopl1:1,2018-04-05T01:20:00Z,28.8850,-90.0250,19.6,1111122 
LOOP,urn:ioos:station:wmo:lopl1:1,2018-04-05T02:50:00Z,28.8850,-90.0250,19.8,1111122 
LOOP,urn:ioos:station:wmo:lopl1:1,2018-04-05T04:00:00Z,28.8850,-90.0250,20.0,1111122 
LOOP,urn:ioos:station:wmo:lopl1:1,2018-04-05T05:00:00Z,28.8850,-90.0250,19.6,1111122 
LOOP,urn:ioos:station:wmo:lopl1:1,2018-04-05T06:15:00Z,28.8850,-90.0250,19.3,1111122 
LOOP,urn:ioos:station:wmo:lopl1:1,2018-04-05T07:15:00Z,28.8850,-90.0250,19.1,1111122 
LOOP,urn:ioos:station:wmo:lopl1:1,2018-04-05T08:15:00Z,28.8850,-90.0250,18.8,1111122 
LOOP,urn:ioos:station:wmo:lopl1:1,2018-04-05T09:15:00Z,28.8850,-90.0250,18.4,1111122 
LOOP,urn:ioos:station:wmo:lopl1:1,2018-04-05T10:15:00Z,28.8850,-90.0250,17.9,1111122 
LOOP,urn:ioos:station:wmo:lopl1:1,2018-04-05T11:15:00Z,28.8850,-90.0250,17.6,1111122 
LOOP,urn:ioos:station:wmo:lopl1:1,2018-04-05T12:15:00Z,28.8850,-90.0250,17.2,1111122 
LOOP,urn:ioos:station:wmo:lopl1:1,2018-04-05T13:15:00Z,28.8850,-90.0250,17.1,1111122 
LOOP,urn:ioos:station:wmo:lopl1:1,2018-04-05T14:15:00Z,28.8850,-90.0250,17.3,1111122 
LOOP,urn:ioos:station:wmo:lopl1:1,2018-04-05T15:15:00Z,28.8850,-90.0250,17.3,1111122 
LOOP,urn:ioos:station:wmo:lopl1:1,2018-04-05T16:15:00Z,28.8850,-90.0250,17.6,1111122 
LOOP,urn:ioos:station:wmo:lopl1:1,2018-04-05T17:15:00Z,28.8850,-90.0250,18.2,1111122 
LOOP,urn:ioos:station:wmo:lopl1:1,2018-04-05T18:15:00Z,28.8850,-90.0250,18.4,1111122 
LOOP,urn:ioos:station:wmo:lopl1:1,2018-04-05T19:15:00Z,28.8850,-90.0250,18.7,1111122 
LOOP,urn:ioos:station:wmo:lopl1:1,2018-04-05T20:15:00Z,28.8850,-90.0250,18.9,1111122 
LOOP,urn:ioos:station:wmo:lopl1:1,2018-04-05T21:15:00Z,28.8850,-90.0250,18.9,1111122 
LOOP,urn:ioos:station:wmo:lopl1:1,2018-04-05T22:15:00Z,28.8850,-90.0250,18.9,1111122 
LOOP,urn:ioos:station:wmo:lopl1:1,2018-04-05T23:15:00Z,28.8850,-90.0250,18.9,1111122 
LOOP,urn:ioos:station:wmo:lopl1:1,2018-04-06T00:15:00Z,28.8850,-90.0250,18.9,1111122 
LOOP,urn:ioos:station:wmo:lopl1:1,2018-04-06T01:15:00Z,28.8850,-90.0250,18.7,1111122 
LOOP,urn:ioos:station:wmo:lopl1:1,2018-04-06T02:15:00Z,28.8850,-90.0250,18.7,1111122 
LOOP,urn:ioos:station:wmo:lopl1:1,2018-04-06T03:15:00Z,28.8850,-90.0250,18.9,1111122 
LOOP,urn:ioos:station:wmo:lopl1:1,2018-04-06T04:15:00Z,28.8850,-90.0250,19.2,1111122 
LOOP,urn:ioos:station:wmo:lopl1:1,2018-04-06T05:15:00Z,28.8850,-90.0250,19.5,1111122 
LOOP,urn:ioos:station:wmo:lopl1:1,2018-04-06T06:15:00Z,28.8850,-90.0250,19.7,1111122 
LOOP,urn:ioos:station:wmo:lopl1:1,2018-04-06T07:15:00Z,28.8850,-90.0250,20.1,1111122 
LOOP,urn:ioos:station:wmo:lopl1:1,2018-04-06T08:15:00Z,28.8850,-90.0250,20.1,1111122 
LOOP,urn:ioos:station:wmo:lopl1:1,2018-04-06T09:15:00Z,28.8850,-90.0250,20.1,1111122 
LOOP,urn:ioos:station:wmo:lopl1:1,2018-04-06T10:15:00Z,28.8850,-90.0250,20.2,1111122 
LOOP,urn:ioos:station:wmo:lopl1:1,2018-04-06T11:15:00Z,28.8850,-90.0250,20.2,1111122 
LOOP,urn:ioos:station:wmo:lopl1:1,2018-04-06T12:15:00Z,28.8850,-90.0250,20.4,1111122 
LOOP,urn:ioos:station:wmo:lopl1:1,2018-04-06T13:15:00Z,28.8850,-90.0250,20.3,1111122 
LOOP,urn:ioos:station:wmo:lopl1:1,2018-04-06T14:15:00Z,28.8850,-90.0250,20.7,1111122 
LOOP,urn:ioos:station:wmo:lopl1:1,2018-04-06T15:15:00Z,28.8850,-90.0250,20.9,1111122 
LOOP,urn:ioos:station:wmo:lopl1:1,2018-04-06T16:15:00Z,28.8850,-90.0250,21.2,1111122 
LOOP,urn:ioos:station:wmo:lopl1:1,2018-04-06T17:15:00Z,28.8850,-90.0250,21.4,1111122 
LOOP,urn:ioos:station:wmo:lopl1:1,2018-04-06T18:15:00Z,28.8850,-90.0250,21.4,1111122 
LOOP,urn:ioos:station:wmo:lopl1:1,2018-04-06T19:15:00Z,28.8850,-90.0250,22.6,1111122 
LOOP,urn:ioos:station:wmo:lopl1:1,2018-04-06T20:15:00Z,28.8850,-90.0250,22.9,1111122 
LOOP,urn:ioos:station:wmo:lopl1:1,2018-04-06T21:15:00Z,28.8850,-90.0250,22.9,1111122 
LOOP,urn:ioos:station:wmo:lopl1:1,2018-04-06T22:15:00Z,28.8850,-90.0250,23.0,1111122 
LOOP,urn:ioos:station:wmo:lopl1:1,2018-04-06T23:15:00Z,28.8850,-90.0250,23.1,1111122 
LOOP,urn:ioos:station:wmo:lopl1:1,2018-04-07T00:15:00Z,28.8850,-90.0250,23.0,1111122 
LOOP,urn:ioos:station:wmo:lopl1:1,2018-04-07T01:15:00Z,28.8850,-90.0250,22.9,1111122 
LOOP,urn:ioos:station:wmo:lopl1:1,2018-04-07T02:15:00Z,28.8850,-90.0250,23.0,1111122 
LOOP,urn:ioos:station:wmo:lopl1:1,2018-04-07T03:15:00Z,28.8850,-90.0250,22.9,1111122 
LOOP,urn:ioos:station:wmo:lopl1:1,2018-04-07T04:15:00Z,28.8850,-90.0250,22.9,1111122 
LOOP,urn:ioos:station:wmo:lopl1:1,2018-04-07T05:15:00Z,28.8850,-90.0250,22.8,1111122 
LOOP,urn:ioos:station:wmo:lopl1:1,2018-04-07T06:15:00Z,28.8850,-90.0250,22.8,1111122 
LOOP,urn:ioos:station:wmo:lopl1:1,2018-04-07T07:15:00Z,28.8850,-90.0250,22.8,1111122 
LOOP,urn:ioos:station:wmo:lopl1:1,2018-04-07T08:15:00Z,28.8850,-90.0250,22.9,1111122 
LOOP,urn:ioos:station:wmo:lopl1:1,2018-04-07T09:20:00Z,28.8850,-90.0250,22.9,11111222 
LOOP,urn:ioos:station:wmo:lopl1:1,2018-04-07T10:20:00Z,28.8850,-90.0250,22.8,11111222 
LOOP,urn:ioos:station:wmo:lopl1:1,2018-04-07T11:20:00Z,28.8850,-90.0250,22.5,11111222 
LOOP,urn:ioos:station:wmo:lopl1:1,2018-04-07T12:20:00Z,28.8850,-90.0250,22.9,1111122 
LOOP,urn:ioos:station:wmo:lopl1:1,2018-04-07T13:20:00Z,28.8850,-90.0250,18.6,11111222 
LOOP,urn:ioos:station:wmo:lopl1:1,2018-04-07T14:20:00Z,28.8850,-90.0250,19.2,11111222 
LOOP,urn:ioos:station:wmo:lopl1:1,2018-04-07T15:30:00Z,28.8850,-90.0250,20.5,1111122 
LOOP,urn:ioos:station:wmo:lopl1:1,2018-04-07T16:30:00Z,28.8850,-90.0250,21.3,1111122 
LOOP,urn:ioos:station:wmo:lopl1:1,2018-04-07T17:30:00Z,28.8850,-90.0250,19.6,1111122 
LOOP,urn:ioos:station:wmo:lopl1:1,2018-04-07T18:30:00Z,28.8850,-90.0250,17.9,1111122 
LOOP,urn:ioos:station:wmo:lopl1:1,2018-04-07T19:30:00Z,28.8850,-90.0250,17.3,1111122 
LOOP,urn:ioos:station:wmo:lopl1:1,2018-04-07T20:30:00Z,28.8850,-90.0250,17.6,1111122 
LOOP,urn:ioos:station:wmo:lopl1:1,2018-04-07T21:30:00Z,28.8850,-90.0250,18.1,1111122 
LOOP,urn:ioos:station:wmo:lopl1:1,2018-04-07T22:30:00Z,28.8850,-90.0250,19.6,1111122 
LOOP,urn:ioos:station:wmo:lopl1:1,2018-04-07T23:30:00Z,28.8850,-90.0250,19.9,1111122 
LOOP,urn:ioos:station:wmo:lopl1:1,2018-04-08T00:30:00Z,28.8850,-90.0250,20.4,1111122 
LOOP,urn:ioos:station:wmo:lopl1:1,2018-04-08T01:30:00Z,28.8850,-90.0250,19.8,1111122 
LOOP,urn:ioos:station:wmo:lopl1:1,2018-04-08T02:30:00Z,28.8850,-90.0250,19.5,11111222 
LOOP,urn:ioos:station:wmo:lopl1:1,2018-04-08T02:40:00Z,28.8850,-90.0250,18.7,1111122 
LOOP,urn:ioos:station:wmo:lopl1:1,2018-04-08T03:40:00Z,28.8850,-90.0250,18.1,1111122 
LOOP,urn:ioos:station:wmo:lopl1:1,2018-04-08T04:40:00Z,28.8850,-90.0250,16.9,1111122 
LOOP,urn:ioos:station:wmo:lopl1:1,2018-04-08T05:40:00Z,28.8850,-90.0250,16.1,1111122 
LOOP,urn:ioos:station:wmo:lopl1:1,2018-04-08T07:20:00Z,28.8850,-90.0250,14.9,1111122 
LOOP,urn:ioos:station:wmo:lopl1:1,2018-04-08T08:20:00Z,28.8850,-90.0250,14.5,1111122 
LOOP,urn:ioos:station:wmo:lopl1:1,2018-04-08T09:20:00Z,28.8850,-90.0250,14.5,1111122 
LOOP,urn:ioos:station:wmo:lopl1:1,2018-04-08T10:20:00Z,28.8850,-90.0250,14.5,1111122 
LOOP,urn:ioos:station:wmo:lopl1:1,2018-04-08T11:20:00Z,28.8850,-90.0250,14.3,1111122 
LOOP,urn:ioos:station:wmo:lopl1:1,2018-04-08T12:20:00Z,28.8850,-90.0250,14.5,1111122 
LOOP,urn:ioos:station:wmo:lopl1:1,2018-04-08T13:20:00Z,28.8850,-90.0250,14.5,1111122 
LOOP,urn:ioos:station:wmo:lopl1:1,2018-04-08T14:20:00Z,28.8850,-90.0250,14.4,1111122 
LOOP,urn:ioos:station:wmo:lopl1:1,2018-04-08T15:20:00Z,28.8850,-90.0250,14.2,1111122 
LOOP,urn:ioos:station:wmo:lopl1:1,2018-04-08T16:20:00Z,28.8850,-90.0250,14.4,1111122 
LOOP,urn:ioos:station:wmo:lopl1:1,2018-04-08T17:20:00Z,28.8850,-90.0250,14.9,1111122 
LOOP,urn:ioos:station:wmo:lopl1:1,2018-04-08T18:20:00Z,28.8850,-90.0250,15.2,1111122 
LOOP,urn:ioos:station:wmo:lopl1:1,2018-04-08T19:35:00Z,28.8850,-90.0250,15.7,1111122 
LOOP,urn:ioos:station:wmo:lopl1:1,2018-04-08T20:35:00Z,28.8850,-90.0250,16.0,1111122 
LOOP,urn:ioos:station:wmo:lopl1:1,2018-04-08T21:35:00Z,28.8850,-90.0250,16.3,1111122 
LOOP,urn:ioos:station:wmo:lopl1:1,2018-04-08T22:35:00Z,28.8850,-90.0250,16.6,1111122 
LOOP,urn:ioos:station:wmo:lopl1:1,2018-04-08T23:35:00Z,28.8850,-90.0250,17.0,1111122 
LOOP,urn:ioos:station:wmo:lopl1:1,2018-04-09T00:35:00Z,28.8850,-90.0250,17.4,1111122 
LOOP,urn:ioos:station:wmo:lopl1:1,2018-04-09T01:35:00Z,28.8850,-90.0250,17.8,1111122 
LOOP,urn:ioos:station:wmo:lopl1:1,2018-04-09T02:35:00Z,28.8850,-90.0250,18.2,1111122 
LOOP,urn:ioos:station:wmo:lopl1:1,2018-04-09T03:35:00Z,28.8850,-90.0250,18.8,1111122 
LOOP,urn:ioos:station:wmo:lopl1:1,2018-04-09T04:35:00Z,28.8850,-90.0250,19.2,1111122 
LOOP,urn:ioos:station:wmo:lopl1:1,2018-04-09T05:50:00Z,28.8850,-90.0250,19.7,1111122 
LOOP,urn:ioos:station:wmo:lopl1:1,2018-04-09T06:50:00Z,28.8850,-90.0250,19.7,1111122 
LOOP,urn:ioos:station:wmo:lopl1:1,2018-04-09T07:50:00Z,28.8850,-90.0250,19.7,1111122 
LOOP,urn:ioos:station:wmo:lopl1:1,2018-04-09T08:50:00Z,28.8850,-90.0250,19.0,1111122 
LOOP,urn:ioos:station:wmo:lopl1:1,2018-04-09T09:50:00Z,28.8850,-90.0250,18.8,11111222 
LOOP,urn:ioos:station:wmo:lopl1:1,2018-04-09T10:00:00Z,28.8850,-90.0250,18.7,1111122 
LOOP,urn:ioos:station:wmo:lopl1:1,2018-04-09T11:00:00Z,28.8850,-90.0250,18.7,1111122 
LOOP,urn:ioos:station:wmo:lopl1:1,2018-04-09T12:00:00Z,28.8850,-90.0250,18.5,1111122 
LOOP,urn:ioos:station:wmo:lopl1:1,2018-04-09T13:00:00Z,28.8850,-90.0250,17.7,1111122 
LOOP,urn:ioos:station:wmo:lopl1:1,2018-04-09T14:00:00Z,28.8850,-90.0250,17.8,1111122 
LOOP,urn:ioos:station:wmo:lopl1:1,2018-04-09T15:00:00Z,28.8850,-90.0250,17.2,1111122 
LOOP,urn:ioos:station:wmo:lopl1:1,2018-04-09T16:00:00Z,28.8850,-90.0250,17.0,1111122 
LOOP,urn:ioos:station:wmo:lopl1:1,2018-04-09T17:00:00Z,28.8850,-90.0250,16.8,1111122 
LOOP,urn:ioos:station:wmo:lopl1:1,2018-04-09T18:00:00Z,28.8850,-90.0250,17.0,1111122 
LOOP,urn:ioos:station:wmo:lopl1:1,2018-04-09T19:00:00Z,28.8850,-90.0250,17.4,1111122 
LOOP,urn:ioos:station:wmo:lopl1:1,2018-04-09T20:00:00Z,28.8850,-90.0250,18.0,1111122 
LOOP,urn:ioos:station:wmo:lopl1:1,2018-04-09T21:00:00Z,28.8850,-90.0250,18.2,1111122 
LOOP,urn:ioos:station:wmo:lopl1:1,2018-04-09T22:00:00Z,28.8850,-90.0250,18.5,1111122 
LOOP,urn:ioos:station:wmo:lopl1:1,2018-04-09T23:00:00Z,28.8850,-90.0250,18.7,1111122 
LOOP,urn:ioos:station:wmo:lopl1:1,2018-04-10T00:20:00Z,28.8850,-90.0250,19.0,1111122 
LOOP,urn:ioos:station:wmo:lopl1:1,2018-04-10T01:20:00Z,28.8850,-90.0250,19.2,1111122 
LOOP,urn:ioos:station:wmo:lopl1:1,2018-04-10T02:20:00Z,28.8850,-90.0250,19.4,1111122 
LOOP,urn:ioos:station:wmo:lopl1:1,2018-04-10T03:20:00Z,28.8850,-90.0250,19.4,1111122 
LOOP,urn:ioos:station:wmo:lopl1:1,2018-04-10T04:25:00Z,28.8850,-90.0250,19.5,1111122 
LOOP,urn:ioos:station:wmo:lopl1:1,2018-04-10T05:25:00Z,28.8850,-90.0250,19.7,1111122 
LOOP,urn:ioos:station:wmo:lopl1:1,2018-04-10T06:25:00Z,28.8850,-90.0250,19.4,1111122 
LOOP,urn:ioos:station:wmo:lopl1:1,2018-04-10T07:25:00Z,28.8850,-90.0250,19.2,1111122 
LOOP,urn:ioos:station:wmo:lopl1:1,2018-04-10T08:25:00Z,28.8850,-90.0250,19.2,1111122 
LOOP,urn:ioos:station:wmo:lopl1:1,2018-04-10T09:25:00Z,28.8850,-90.0250,19.3,1111122 
LOOP,urn:ioos:station:wmo:lopl1:1,2018-04-10T10:25:00Z,28.8850,-90.0250,19.1,1111122 
LOOP,urn:ioos:station:wmo:lopl1:1,2018-04-10T11:25:00Z,28.8850,-90.0250,18.6,1111122 
LOOP,urn:ioos:station:wmo:lopl1:1,2018-04-10T12:25:00Z,28.8850,-90.0250,18.4,1111122 
LOOP,urn:ioos:station:wmo:lopl1:1,2018-04-10T13:25:00Z,28.8850,-90.0250,18.0,1111122 
LOOP,urn:ioos:station:wmo:lopl1:1,2018-04-10T14:25:00Z,28.8850,-90.0250,18.1,1111122 
LOOP,urn:ioos:station:wmo:lopl1:1,2018-04-10T15:25:00Z,28.8850,-90.0250,18.2,1111122 
LOOP,urn:ioos:station:wmo:lopl1:1,2018-04-10T16:25:00Z,28.8850,-90.0250,18.3,1111122 
LOOP,urn:ioos:station:wmo:lopl1:1,2018-04-10T17:25:00Z,28.8850,-90.0250,18.4,1111122 
LOOP,urn:ioos:station:wmo:lopl1:1,2018-04-10T18:25:00Z,28.8850,-90.0250,19.1,1111122 
LOOP,urn:ioos:station:wmo:lopl1:1,2018-04-10T19:25:00Z,28.8850,-90.0250,19.9,1111122 
LOOP,urn:ioos:station:wmo:lopl1:1,2018-04-10T20:25:00Z,28.8850,-90.0250,20.3,1111122 
LOOP,urn:ioos:station:wmo:lopl1:1,2018-04-10T21:25:00Z,28.8850,-90.0250,20.5,1111122 
LOOP,urn:ioos:station:wmo:lopl1:1,2018-04-10T22:25:00Z,28.8850,-90.0250,20.8,1111122 
LOOP,urn:ioos:station:wmo:lopl1:1,2018-04-10T23:25:00Z,28.8850,-90.0250,21.0,1111122 
LOOP,urn:ioos:station:wmo:lopl1:1,2018-04-11T00:25:00Z,28.8850,-90.0250,20.9,1111122 
LOOP,urn:ioos:station:wmo:lopl1:1,2018-04-11T01:25:00Z,28.8850,-90.0250,20.9,1111122 
LOOP,urn:ioos:station:wmo:lopl1:1,2018-04-11T02:25:00Z,28.8850,-90.0250,20.7,1111122 
LOOP,urn:ioos:station:wmo:lopl1:1,2018-04-11T03:25:00Z,28.8850,-90.0250,20.6,1111122 
LOOP,urn:ioos:station:wmo:lopl1:1,2018-04-11T04:25:00Z,28.8850,-90.0250,20.4,1111122 
LOOP,urn:ioos:station:wmo:lopl1:1,2018-04-11T05:25:00Z,28.8850,-90.0250,19.6,1111122 
LOOP,urn:ioos:station:wmo:lopl1:1,2018-04-11T06:25:00Z,28.8850,-90.0250,18.8,1111122 
LOOP,urn:ioos:station:wmo:lopl1:1,2018-04-11T07:25:00Z,28.8850,-90.0250,18.1,1111122 
LOOP,urn:ioos:station:wmo:lopl1:1,2018-04-11T08:25:00Z,28.8850,-90.0250,17.5,1111122 
LOOP,urn:ioos:station:wmo:lopl1:1,2018-04-11T09:25:00Z,28.8850,-90.0250,17.1,1111122 
LOOP,urn:ioos:station:wmo:lopl1:1,2018-04-11T10:25:00Z,28.8850,-90.0250,16.6,1111122 
LOOP,urn:ioos:station:wmo:lopl1:1,2018-04-11T11:25:00Z,28.8850,-90.0250,16.3,1111122 
LOOP,urn:ioos:station:wmo:lopl1:1,2018-04-11T12:25:00Z,28.8850,-90.0250,16.6,1111122 
LOOP,urn:ioos:station:wmo:lopl1:1,2018-04-11T13:25:00Z,28.8850,-90.0250,16.7,1111122 
LOOP,urn:ioos:station:wmo:lopl1:1,2018-04-11T14:25:00Z,28.8850,-90.0250,16.9,1111122 
LOOP,urn:ioos:station:wmo:lopl1:1,2018-04-11T15:25:00Z,28.8850,-90.0250,17.4,11111222 
LOOP,urn:ioos:station:wmo:lopl1:1,2018-04-11T16:26:00Z,28.8850,-90.0250,17.5,11111222 
LOOP,urn:ioos:station:wmo:lopl1:1,2018-04-11T17:26:00Z,28.8850,-90.0250,17.6,11111222 
LOOP,urn:ioos:station:wmo:lopl1:1,2018-04-11T18:26:00Z,28.8850,-90.0250,18.1,1111122 
LOOP,urn:ioos:station:wmo:lopl1:1,2018-04-11T19:31:00Z,28.8850,-90.0250,18.3,11111222 
LOOP,urn:ioos:station:wmo:lopl1:1,2018-04-11T20:31:00Z,28.8850,-90.0250,18.5,1111122 
LOOP,urn:ioos:station:wmo:lopl1:1,2018-04-11T21:31:00Z,28.8850,-90.0250,18.8,1111122 
LOOP,urn:ioos:station:wmo:lopl1:1,2018-04-11T22:31:00Z,28.8850,-90.0250,19.1,1111122 
LOOP,urn:ioos:station:wmo:lopl1:1,2018-04-11T23:31:00Z,28.8850,-90.0250,19.1,1111122 
LOOP,urn:ioos:station:wmo:lopl1:1,2018-04-12T00:31:00Z,28.8850,-90.0250,19.1,1111122 
LOOP,urn:ioos:station:wmo:lopl1:1,2018-04-12T01:31:00Z,28.8850,-90.0250,19.1,1111122 
LOOP,urn:ioos:station:wmo:lopl1:1,2018-04-12T02:31:00Z,28.8850,-90.0250,18.8,1111122 
LOOP,urn:ioos:station:wmo:lopl1:1,2018-04-12T03:31:00Z,28.8850,-90.0250,18.8,1111122 
LOOP,urn:ioos:station:wmo:lopl1:1,2018-04-12T04:31:00Z,28.8850,-90.0250,19.0,1111122 
LOOP,urn:ioos:station:wmo:lopl1:1,2018-04-12T05:41:00Z,28.8850,-90.0250,19.3,1111122 
LOOP,urn:ioos:station:wmo:lopl1:1,2018-04-12T06:41:00Z,28.8850,-90.0250,19.2,1111122 
LOOP,urn:ioos:station:wmo:lopl1:1,2018-04-12T07:41:00Z,28.8850,-90.0250,19.3,1111122 
LOOP,urn:ioos:station:wmo:lopl1:1,2018-04-12T09:21:00Z,28.8850,-90.0250,19.9,1111122 
LOOP,urn:ioos:station:wmo:lopl1:1,2018-04-12T10:21:00Z,28.8850,-90.0250,20.1,1111122 
LOOP,urn:ioos:station:wmo:lopl1:1,2018-04-12T11:21:00Z,28.8850,-90.0250,20.2,1111122 
LOOP,urn:ioos:station:wmo:lopl1:1,2018-04-12T12:21:00Z,28.8850,-90.0250,20.1,1111122 
LOOP,urn:ioos:station:wmo:lopl1:1,2018-04-12T13:21:00Z,28.8850,-90.0250,20.3,1111122 
LOOP,urn:ioos:station:wmo:lopl1:1,2018-04-12T14:21:00Z,28.8850,-90.0250,19.8,1111122 
LOOP,urn:ioos:station:wmo:lopl1:1,2018-04-12T15:21:00Z,28.8850,-90.0250,19.6,1111122 
LOOP,urn:ioos:station:wmo:lopl1:1,2018-04-12T16:21:00Z,28.8850,-90.0250,19.7,1111122 
LOOP,urn:ioos:station:wmo:lopl1:1,2018-04-12T17:21:00Z,28.8850,-90.0250,20.0,1111122 